TimeHST,TemperatureF,Dew PointF,Humidity,Sea Level PressureIn,VisibilityMPH,Wind Direction,Wind SpeedMPH,Gust SpeedMPH,PrecipitationIn,Events,Conditions,WindDirDegrees,DateUTC
12:53 AM,68.0,64.0,87,30.03,10.0,Calm,Calm,-,N/A,,Mostly Cloudy,0,2013-03-26 10:53:00
1:53 AM,66.9,64.9,93,30.01,10.0,Calm,Calm,-,N/A,,Overcast,0,2013-03-26 11:53:00
2:53 AM,66.9,64.0,90,30.00,10.0,Calm,Calm,-,N/A,,Mostly Cloudy,0,2013-03-26 12:53:00
3:53 AM,66.9,64.0,90,29.99,10.0,Calm,Calm,-,N/A,,Overcast,0,2013-03-26 13:53:00
4:53 AM,66.9,64.9,93,30.01,10.0,Calm,Calm,-,N/A,,Overcast,0,2013-03-26 14:53:00
5:45 AM,66.2,64.4,94,30.00,10.0,Calm,Calm,-,N/A,,Scattered Clouds,0,2013-03-26 15:45:00
5:53 AM,64.9,63.0,93,30.03,10.0,Calm,Calm,-,N/A,,Partly Cloudy,0,2013-03-26 15:53:00
6:53 AM,64.9,63.0,93,30.04,10.0,Calm,Calm,-,N/A,,Clear,0,2013-03-26 16:53:00
7:53 AM,70.0,64.9,84,30.06,10.0,Calm,Calm,-,N/A,,Clear,0,2013-03-26 17:53:00
8:53 AM,75.0,64.9,71,30.08,10.0,Variable,3.5,-,N/A,,Clear,0,2013-03-26 18:53:00
9:53 AM,77.0,64.0,64,30.09,10.0,SSE,5.8,-,N/A,,Clear,150,2013-03-26 19:53:00
10:53 AM,78.1,66.0,66,30.09,10.0,SSE,8.1,-,N/A,,Partly Cloudy,160,2013-03-26 20:53:00
11:53 AM,75.9,66.0,71,30.07,10.0,South,5.8,-,N/A,,Mostly Cloudy,180,2013-03-26 21:53:00
12:53 PM,78.1,68.0,71,30.05,10.0,SSW,6.9,-,N/A,,Partly Cloudy,200,2013-03-26 22:53:00
1:53 PM,77.0,66.9,71,30.03,10.0,South,6.9,-,N/A,,Scattered Clouds,190,2013-03-26 23:53:00
2:53 PM,75.0,66.0,73,30.01,10.0,South,6.9,-,N/A,,Overcast,190,2013-03-27 00:53:00
3:53 PM,75.0,66.0,73,30.01,10.0,SSW,4.6,-,N/A,,Mostly Cloudy,210,2013-03-27 01:53:00
4:53 PM,73.9,66.0,76,30.01,10.0,Calm,Calm,-,N/A,,Overcast,0,2013-03-27 02:53:00
5:09 PM,73.4,66.2,78,29.99,10.0,Calm,Calm,-,N/A,,Overcast,0,2013-03-27 03:09:00
5:53 PM,73.9,66.0,76,30.02,10.0,SSW,3.5,-,N/A,,Overcast,200,2013-03-27 03:53:00
6:53 PM,73.9,66.0,76,30.03,10.0,Calm,Calm,-,N/A,,Overcast,0,2013-03-27 04:53:00
7:53 PM,71.1,64.9,81,30.05,10.0,ENE,3.5,-,N/A,,Partly Cloudy,60,2013-03-27 05:53:00
8:53 PM,72.0,64.0,76,30.06,10.0,Variable,3.5,-,N/A,,Overcast,0,2013-03-27 06:53:00
9:53 PM,70.0,64.0,81,30.07,10.0,Variable,3.5,-,N/A,,Mostly Cloudy,0,2013-03-27 07:53:00
10:53 PM,69.1,63.0,81,30.07,10.0,Calm,Calm,-,N/A,,Clear,0,2013-03-27 08:53:00
11:53 PM,68.0,63.0,84,30.06,10.0,Calm,Calm,-,N/A,,Clear,0,2013-03-27 09:53:00